Time,TemperatureF,DewpointF,PressureIn,WindDirection,WindDirectionDegrees,WindSpeedMPH,WindSpeedGustMPH,Humidity,HourlyPrecipIn,Conditions,Clouds,dailyrainin,SolarRadiationWatts/m^2,SoftwareType,DateUTC
2013-01-24 00:00:00,27.1,23.5,30.15,NW,324,3.0,3.0,86,0.00,,,0.00,0,HR-IXPWINDi_r2_v1.2.,2013-01-24 05:00:00,
2013-01-24 00:05:00,28.5,24.8,30.15,ESE,114,0.0,5.0,86,0.00,,,0.00,0,HR-IXPWINDi_r2_v1.2.,2013-01-24 05:05:00,
2013-01-24 00:10:00,28.8,24.6,30.14,SSE,161,6.0,8.0,84,0.00,,,0.00,0,HR-IXPWINDi_r2_v1.2.,2013-01-24 05:10:00,
2013-01-24 00:15:00,31.9,27.9,30.14,SW,236,0.0,9.0,85,0.00,,,0.00,0,HR-IXPWINDi_r2_v1.2.,2013-01-24 05:15:00,
2013-01-24 00:20:00,35.4,30.4,30.14,SW,231,1.0,9.0,82,0.00,,,0.00,0,HR-IXPWINDi_r2_v1.2.,2013-01-24 05:20:00,
2013-01-24 00:26:00,36.7,30.1,30.14,SSW,196,0.0,7.0,77,0.00,,,0.00,0,HR-IXPWINDi_r2_v1.2.,2013-01-24 05:26:00,
2013-01-24 00:31:00,37.5,30.3,30.14,West,271,0.0,6.0,75,0.00,,,0.00,0,HR-IXPWINDi_r2_v1.2.,2013-01-24 05:31:00,
2013-01-24 00:36:00,37.6,30.4,30.13,NNE,28,0.0,6.0,75,0.00,,,0.00,0,HR-IXPWINDi_r2_v1.2.,2013-01-24 05:36:00,
2013-01-24 00:41:00,38.2,30.9,30.13,North,11,0.0,9.0,75,0.00,,,0.00,0,HR-IXPWINDi_r2_v1.2.,2013-01-24 05:41:00,
2013-01-24 00:47:00,39.0,31.4,30.13,SSW,203,0.0,9.0,74,0.00,,,0.00,0,HR-IXPWINDi_r2_v1.2.,2013-01-24 05:47:00,
2013-01-24 00:52:00,39.8,31.5,30.13,East,81,0.0,7.0,72,0.00,,,0.00,0,HR-IXPWINDi_r2_v1.2.,2013-01-24 05:52:00,
2013-01-24 00:57:00,39.9,31.6,30.12,NNE,18,4.0,7.0,72,0.00,,,0.00,0,HR-IXPWINDi_r2_v1.2.,2013-01-24 05:57:00,
2013-01-24 01:02:00,40.3,31.6,30.13,WSW,237,0.0,7.0,71,0.00,,,0.00,0,HR-IXPWINDi_r2_v1.2.,2013-01-24 06:02:00,
2013-01-24 01:07:00,40.2,31.5,30.12,SW,214,1.0,7.0,71,0.00,,,0.00,0,HR-IXPWINDi_r2_v1.2.,2013-01-24 06:07:00,
2013-01-24 01:13:00,40.1,31.4,30.12,NNW,335,0.0,5.0,71,0.00,,,0.00,0,HR-IXPWINDi_r2_v1.2.,2013-01-24 06:13:00,
2013-01-24 01:18:00,40.1,31.8,30.12,SSW,205,1.0,5.0,72,0.00,,,0.00,0,HR-IXPWINDi_r2_v1.2.,2013-01-24 06:18:00,
2013-01-24 01:23:00,40.2,31.9,30.12,South,173,0.0,5.0,72,0.00,,,0.00,0,HR-IXPWINDi_r2_v1.2.,2013-01-24 06:23:00,
2013-01-24 01:28:00,40.6,31.9,30.11,SSE,157,2.0,5.0,71,0.00,,,0.00,0,HR-IXPWINDi_r2_v1.2.,2013-01-24 06:28:00,
2013-01-24 01:34:00,40.4,31.7,30.11,SW,217,0.0,4.0,71,0.00,,,0.00,0,HR-IXPWINDi_r2_v1.2.,2013-01-24 06:34:00,
2013-01-24 01:39:00,40.2,31.9,30.11,WNW,297,5.0,6.0,72,0.00,,,0.00,0,HR-IXPWINDi_r2_v1.2.,2013-01-24 06:39:00,
2013-01-24 01:44:00,40.7,32.0,30.11,West,279,0.0,6.0,71,0.00,,,0.00,0,HR-IXPWINDi_r2_v1.2.,2013-01-24 06:44:00,
2013-01-24 01:49:00,40.6,31.9,30.11,West,267,0.0,5.0,71,0.00,,,0.00,0,HR-IXPWINDi_r2_v1.2.,2013-01-24 06:49:00,
2013-01-24 01:54:00,40.8,32.1,30.11,NNW,336,3.0,5.0,71,0.00,,,0.00,0,HR-IXPWINDi_r2_v1.2.,2013-01-24 06:54:00,
2013-01-24 01:59:00,41.6,32.5,30.11,WSW,243,0.0,7.0,70,0.00,,,0.00,0,HR-IXPWINDi_r2_v1.2.,2013-01-24 06:59:00,
2013-01-24 02:05:00,42.1,32.3,30.11,NW,325,3.0,10.0,68,0.00,,,0.00,0,HR-IXPWINDi_r2_v1.2.,2013-01-24 07:05:00,
2013-01-24 02:10:00,42.0,32.2,30.11,North,350,0.0,10.0,68,0.00,,,0.00,0,HR-IXPWINDi_r2_v1.2.,2013-01-24 07:10:00,
2013-01-24 02:15:00,41.9,32.4,30.11,NNW,344,2.0,5.0,69,0.00,,,0.00,0,HR-IXPWINDi_r2_v1.2.,2013-01-24 07:15:00,
2013-01-24 02:20:00,42.0,32.5,30.11,NW,321,1.0,11.0,69,0.00,,,0.00,0,HR-IXPWINDi_r2_v1.2.,2013-01-24 07:20:00,
2013-01-24 02:26:00,42.1,32.3,30.11,North,349,2.0,11.0,68,0.00,,,0.00,0,HR-IXPWINDi_r2_v1.2.,2013-01-24 07:26:00,
2013-01-24 02:31:00,42.3,32.5,30.11,SSW,200,5.0,10.0,68,0.00,,,0.00,0,HR-IXPWINDi_r2_v1.2.,2013-01-24 07:31:00,
2013-01-24 02:36:00,42.3,32.5,30.10,NW,312,2.0,9.0,68,0.00,,,0.00,0,HR-IXPWINDi_r2_v1.2.,2013-01-24 07:36:00,
2013-01-24 02:41:00,42.2,32.4,30.10,NW,317,1.0,7.0,68,0.00,,,0.00,0,HR-IXPWINDi_r2_v1.2.,2013-01-24 07:41:00,
2013-01-24 02:46:00,42.1,32.6,30.11,NNW,332,2.0,9.0,69,0.00,,,0.00,0,HR-IXPWINDi_r2_v1.2.,2013-01-24 07:46:00,
2013-01-24 02:51:00,42.2,32.4,30.11,West,274,0.0,9.0,68,0.00,,,0.00,0,HR-IXPWINDi_r2_v1.2.,2013-01-24 07:51:00,
2013-01-24 02:56:00,42.4,32.6,30.11,NNW,348,3.0,10.0,68,0.00,,,0.00,0,HR-IXPWINDi_r2_v1.2.,2013-01-24 07:56:00,
2013-01-24 03:01:00,42.4,32.6,30.11,East,88,1.0,10.0,68,0.00,,,0.00,0,HR-IXPWINDi_r2_v1.2.,2013-01-24 08:01:00,
2013-01-24 03:07:00,42.4,32.6,30.11,WNW,287,1.0,8.0,68,0.00,,,0.00,0,HR-IXPWINDi_r2_v1.2.,2013-01-24 08:07:00,
2013-01-24 03:12:00,42.3,32.5,30.11,NNW,346,3.0,8.0,68,0.00,,,0.00,0,HR-IXPWINDi_r2_v1.2.,2013-01-24 08:12:00,
2013-01-24 03:17:00,42.3,32.8,30.11,North,355,3.0,12.0,69,0.00,,,0.00,0,HR-IXPWINDi_r2_v1.2.,2013-01-24 08:17:00,
2013-01-24 03:22:00,42.3,32.8,30.11,WNW,286,0.0,12.0,69,0.00,,,0.00,0,HR-IXPWINDi_r2_v1.2.,2013-01-24 08:22:00,
2013-01-24 03:27:00,42.1,32.6,30.11,NNW,332,0.0,12.0,69,0.00,,,0.00,0,HR-IXPWINDi_r2_v1.2.,2013-01-24 08:27:00,
2013-01-24 03:32:00,42.1,32.6,30.11,SW,231,1.0,9.0,69,0.00,,,0.00,0,HR-IXPWINDi_r2_v1.2.,2013-01-24 08:32:00,
2013-01-24 03:38:00,42.0,32.5,30.11,NNW,330,2.0,7.0,69,0.00,,,0.00,0,HR-IXPWINDi_r2_v1.2.,2013-01-24 08:38:00,
2013-01-24 03:43:00,41.9,32.4,30.11,North,360,7.0,11.0,69,0.00,,,0.00,0,HR-IXPWINDi_r2_v1.2.,2013-01-24 08:43:00,
2013-01-24 03:48:00,41.9,32.1,30.11,NNW,338,7.0,16.0,68,0.00,,,0.00,0,HR-IXPWINDi_r2_v1.2.,2013-01-24 08:48:00,
2013-01-24 03:53:00,41.8,32.0,30.11,WNW,295,2.0,16.0,68,0.00,,,0.00,0,HR-IXPWINDi_r2_v1.2.,2013-01-24 08:53:00,
2013-01-24 03:58:00,41.6,31.8,30.11,South,178,1.0,10.0,68,0.00,,,0.00,0,HR-IXPWINDi_r2_v1.2.,2013-01-24 08:58:00,
2013-01-24 04:03:00,41.5,31.3,30.11,WNW,288,12.0,17.0,67,0.00,,,0.00,0,HR-IXPWINDi_r2_v1.2.,2013-01-24 09:03:00,
2013-01-24 04:09:00,41.3,30.4,30.12,NW,307,3.0,17.0,65,0.00,,,0.00,0,HR-IXPWINDi_r2_v1.2.,2013-01-24 09:09:00,
2013-01-24 04:14:00,41.1,30.2,30.12,NW,321,2.0,20.0,65,0.00,,,0.00,0,HR-IXPWINDi_r2_v1.2.,2013-01-24 09:14:00,
2013-01-24 04:19:00,40.9,30.4,30.12,WNW,295,6.0,20.0,66,0.00,,,0.00,0,HR-IXPWINDi_r2_v1.2.,2013-01-24 09:19:00,
2013-01-24 04:24:00,40.7,30.2,30.12,SSW,195,0.0,10.0,66,0.00,,,0.00,0,HR-IXPWINDi_r2_v1.2.,2013-01-24 09:24:00,
2013-01-24 04:29:00,40.5,30.4,30.12,WSW,244,0.0,13.0,67,0.00,,,0.00,0,HR-IXPWINDi_r2_v1.2.,2013-01-24 09:29:00,
2013-01-24 04:34:00,40.4,30.3,30.12,SSW,196,4.0,13.0,67,0.00,,,0.00,0,HR-IXPWINDi_r2_v1.2.,2013-01-24 09:34:00,
2013-01-24 04:39:00,40.1,30.0,30.12,WNW,301,4.0,15.0,67,0.00,,,0.00,0,HR-IXPWINDi_r2_v1.2.,2013-01-24 09:39:00,
2013-01-24 04:45:00,40.0,30.3,30.13,NNW,342,7.0,16.0,68,0.00,,,0.00,0,HR-IXPWINDi_r2_v1.2.,2013-01-24 09:45:00,
2013-01-24 04:50:00,39.8,30.4,30.13,NNW,341,2.0,16.0,69,0.00,,,0.00,0,HR-IXPWINDi_r2_v1.2.,2013-01-24 09:50:00,
2013-01-24 04:55:00,39.8,30.8,30.13,South,186,0.0,7.0,70,0.00,,,0.00,0,HR-IXPWINDi_r2_v1.2.,2013-01-24 09:55:00,
2013-01-24 05:00:00,39.7,30.7,30.13,SW,218,2.0,9.0,70,0.00,,,0.00,0,HR-IXPWINDi_r2_v1.2.,2013-01-24 10:00:00,
2013-01-24 05:05:00,39.7,30.7,30.14,West,281,3.0,11.0,70,0.00,,,0.00,0,HR-IXPWINDi_r2_v1.2.,2013-01-24 10:05:00,
2013-01-24 05:11:00,39.5,30.9,30.13,NNW,340,6.0,16.0,71,0.00,,,0.00,0,HR-IXPWINDi_r2_v1.2.,2013-01-24 10:11:00,
2013-01-24 05:16:00,39.3,30.7,30.13,WSW,244,0.0,16.0,71,0.00,,,0.00,0,HR-IXPWINDi_r2_v1.2.,2013-01-24 10:16:00,
2013-01-24 05:21:00,39.2,30.6,30.14,SW,218,1.0,13.0,71,0.00,,,0.00,0,HR-IXPWINDi_r2_v1.2.,2013-01-24 10:21:00,
2013-01-24 05:26:00,38.9,30.6,30.14,NNW,327,7.0,14.0,72,0.00,,,0.00,0,HR-IXPWINDi_r2_v1.2.,2013-01-24 10:26:00,
2013-01-24 05:31:00,38.8,30.5,30.14,SSW,194,8.0,14.0,72,0.00,,,0.00,0,HR-IXPWINDi_r2_v1.2.,2013-01-24 10:31:00,
2013-01-24 05:36:00,38.6,30.3,30.14,NNW,346,7.0,15.0,72,0.00,,,0.00,0,HR-IXPWINDi_r2_v1.2.,2013-01-24 10:36:00,
2013-01-24 05:42:00,38.3,30.0,30.14,North,360,2.0,15.0,72,0.00,,,0.00,0,HR-IXPWINDi_r2_v1.2.,2013-01-24 10:42:00,
2013-01-24 05:47:00,37.8,29.2,30.15,WNW,285,2.0,13.0,71,0.00,,,0.00,0,HR-IXPWINDi_r2_v1.2.,2013-01-24 10:47:00,
2013-01-24 05:52:00,37.6,29.0,30.15,North,9,13.0,13.0,71,0.00,,,0.00,0,HR-IXPWINDi_r2_v1.2.,2013-01-24 10:52:00,
2013-01-24 05:57:00,37.4,28.8,30.15,SW,225,0.0,18.0,71,0.00,,,0.00,0,HR-IXPWINDi_r2_v1.2.,2013-01-24 10:57:00,
2013-01-24 06:02:00,37.1,28.6,30.16,SSW,194,2.0,18.0,71,0.00,,,0.00,0,HR-IXPWINDi_r2_v1.2.,2013-01-24 11:02:00,
2013-01-24 06:08:00,36.9,28.0,30.16,North,5,1.0,16.0,70,0.00,,,0.00,0,HR-IXPWINDi_r2_v1.2.,2013-01-24 11:08:00,
2013-01-24 06:13:00,36.7,28.2,30.17,NNW,336,4.0,16.0,71,0.00,,,0.00,0,HR-IXPWINDi_r2_v1.2.,2013-01-24 11:13:00,
2013-01-24 06:18:00,36.4,27.5,30.17,West,277,2.0,11.0,70,0.00,,,0.00,0,HR-IXPWINDi_r2_v1.2.,2013-01-24 11:18:00,
2013-01-24 06:23:00,36.4,27.5,30.17,WSW,252,2.0,13.0,70,0.00,,,0.00,0,HR-IXPWINDi_r2_v1.2.,2013-01-24 11:23:00,
2013-01-24 06:28:00,36.1,27.2,30.17,SSE,165,0.0,13.0,70,0.00,,,0.00,0,HR-IXPWINDi_r2_v1.2.,2013-01-24 11:28:00,
2013-01-24 06:33:00,35.9,26.7,30.18,NW,313,2.0,16.0,69,0.00,,,0.00,0,HR-IXPWINDi_r2_v1.2.,2013-01-24 11:33:00,
2013-01-24 06:39:00,35.8,26.6,30.18,SW,234,2.0,16.0,69,0.00,,,0.00,0,HR-IXPWINDi_r2_v1.2.,2013-01-24 11:39:00,
2013-01-24 06:44:00,35.5,26.3,30.19,WNW,294,3.0,14.0,69,0.00,,,0.00,0,HR-IXPWINDi_r2_v1.2.,2013-01-24 11:44:00,
2013-01-24 06:49:00,35.3,26.5,30.19,North,9,3.0,13.0,70,0.00,,,0.00,0,HR-IXPWINDi_r2_v1.2.,2013-01-24 11:49:00,
2013-01-24 06:54:00,35.1,25.9,30.18,North,355,3.0,17.0,69,0.00,,,0.00,0,HR-IXPWINDi_r2_v1.2.,2013-01-24 11:54:00,
2013-01-24 06:59:00,35.0,26.2,30.19,NNW,347,8.0,17.0,70,0.00,,,0.00,0,HR-IXPWINDi_r2_v1.2.,2013-01-24 11:59:00,
2013-01-24 07:05:00,34.8,26.0,30.19,NNW,341,5.0,9.0,70,0.00,,,0.00,0,HR-IXPWINDi_r2_v1.2.,2013-01-24 12:05:00,
2013-01-24 07:10:00,34.6,25.5,30.19,North,349,19.0,20.0,69,0.00,,,0.00,0,HR-IXPWINDi_r2_v1.2.,2013-01-24 12:10:00,
2013-01-24 07:15:00,34.3,25.2,30.20,North,5,3.0,20.0,69,0.00,,,0.00,0,HR-IXPWINDi_r2_v1.2.,2013-01-24 12:15:00,
2013-01-24 07:20:00,34.1,24.6,30.20,NNW,343,7.0,20.0,68,0.00,,,0.00,0,HR-IXPWINDi_r2_v1.2.,2013-01-24 12:20:00,
2013-01-24 07:25:00,33.9,24.8,30.21,NNW,335,1.0,16.0,69,0.00,,,0.00,0,HR-IXPWINDi_r2_v1.2.,2013-01-24 12:25:00,
2013-01-24 07:30:00,33.6,24.2,30.21,NNW,341,8.0,13.0,68,0.00,,,0.00,0,HR-IXPWINDi_r2_v1.2.,2013-01-24 12:30:00,
2013-01-24 07:36:00,33.5,23.7,30.21,NNW,330,2.0,14.0,67,0.00,,,0.00,0,HR-IXPWINDi_r2_v1.2.,2013-01-24 12:36:00,
2013-01-24 07:41:00,33.3,23.2,30.21,WSW,239,1.0,15.0,66,0.00,,,0.00,5,HR-IXPWINDi_r2_v1.2.,2013-01-24 12:41:00,
2013-01-24 07:46:00,33.2,22.3,30.21,North,360,9.0,18.0,64,0.00,,,0.00,9,HR-IXPWINDi_r2_v1.2.,2013-01-24 12:46:00,
2013-01-24 07:51:00,33.0,22.5,30.21,NNW,327,1.0,18.0,65,0.00,,,0.00,18,HR-IXPWINDi_r2_v1.2.,2013-01-24 12:51:00,
2013-01-24 07:57:00,32.8,22.3,30.22,North,355,7.0,12.0,65,0.00,,,0.00,28,HR-IXPWINDi_r2_v1.2.,2013-01-24 12:57:00,
2013-01-24 08:02:00,32.4,20.5,30.23,NW,321,4.0,17.0,61,0.00,,,0.00,30,HR-IXPWINDi_r2_v1.2.,2013-01-24 13:02:00,
2013-01-24 08:07:00,32.1,19.8,30.24,NNW,348,10.0,21.0,60,0.00,,,0.00,25,HR-IXPWINDi_r2_v1.2.,2013-01-24 13:07:00,
2013-01-24 08:12:00,31.8,18.3,30.24,North,355,14.0,21.0,57,0.00,,,0.00,28,HR-IXPWINDi_r2_v1.2.,2013-01-24 13:12:00,
2013-01-24 08:17:00,31.5,18.0,30.24,SW,230,2.0,20.0,57,0.00,,,0.00,40,HR-IXPWINDi_r2_v1.2.,2013-01-24 13:17:00,
2013-01-24 08:23:00,31.5,17.2,30.24,NNW,339,12.0,20.0,55,0.00,,,0.00,69,HR-IXPWINDi_r2_v1.2.,2013-01-24 13:23:00,
2013-01-24 08:28:00,31.5,17.2,30.23,NNW,339,7.0,18.0,55,0.00,,,0.00,84,HR-IXPWINDi_r2_v1.2.,2013-01-24 13:28:00,
2013-01-24 08:33:00,31.5,16.4,30.23,NNW,346,14.0,17.0,53,0.00,,,0.00,95,HR-IXPWINDi_r2_v1.2.,2013-01-24 13:33:00,
2013-01-24 08:38:00,31.8,16.6,30.24,NNW,343,1.0,17.0,53,0.00,,,0.00,116,HR-IXPWINDi_r2_v1.2.,2013-01-24 13:38:00,
2013-01-24 08:43:00,31.9,16.3,30.24,WNW,290,6.0,16.0,52,0.00,,,0.00,139,HR-IXPWINDi_r2_v1.2.,2013-01-24 13:43:00,
2013-01-24 08:49:00,31.8,16.2,30.25,NW,322,1.0,16.0,52,0.00,,,0.00,155,HR-IXPWINDi_r2_v1.2.,2013-01-24 13:49:00,
2013-01-24 08:54:00,31.9,15.8,30.25,NW,315,7.0,18.0,51,0.00,,,0.00,174,HR-IXPWINDi_r2_v1.2.,2013-01-24 13:54:00,
2013-01-24 08:59:00,31.6,15.6,30.25,NNW,337,9.0,20.0,51,0.00,,,0.00,193,HR-IXPWINDi_r2_v1.2.,2013-01-24 13:59:00,
2013-01-24 09:04:00,31.8,16.6,30.24,NNW,342,5.0,20.0,53,0.00,,,0.00,209,HR-IXPWINDi_r2_v1.2.,2013-01-24 14:04:00,
2013-01-24 09:09:00,31.6,16.4,30.25,NNE,13,9.0,20.0,53,0.00,,,0.00,227,HR-IXPWINDi_r2_v1.2.,2013-01-24 14:09:00,
2013-01-24 09:14:00,31.8,16.6,30.26,NW,316,1.0,20.0,53,0.00,,,0.00,244,HR-IXPWINDi_r2_v1.2.,2013-01-24 14:14:00,
2013-01-24 09:20:00,32.0,16.4,30.26,North,349,5.0,12.0,52,0.00,,,0.00,257,HR-IXPWINDi_r2_v1.2.,2013-01-24 14:20:00,
2013-01-24 09:25:00,32.3,17.1,30.26,North,355,5.0,10.0,53,0.00,,,0.00,272,HR-IXPWINDi_r2_v1.2.,2013-01-24 14:25:00,
2013-01-24 09:30:00,32.4,17.2,30.26,SW,224,1.0,16.0,53,0.00,,,0.00,287,HR-IXPWINDi_r2_v1.2.,2013-01-24 14:30:00,
2013-01-24 09:35:00,32.3,16.7,30.26,WNW,285,7.0,16.0,52,0.00,,,0.00,299,HR-IXPWINDi_r2_v1.2.,2013-01-24 14:35:00,
2013-01-24 09:40:00,32.6,17.4,30.27,North,5,0.0,16.0,53,0.00,,,0.00,311,HR-IXPWINDi_r2_v1.2.,2013-01-24 14:40:00,
2013-01-24 09:46:00,32.4,17.2,30.28,North,5,4.0,14.0,53,0.00,,,0.00,325,HR-IXPWINDi_r2_v1.2.,2013-01-24 14:46:00,
2013-01-24 09:51:00,32.4,16.8,30.27,WNW,296,4.0,13.0,52,0.00,,,0.00,341,HR-IXPWINDi_r2_v1.2.,2013-01-24 14:51:00,
2013-01-24 09:56:00,32.0,15.9,30.27,West,280,7.0,20.0,51,0.00,,,0.00,350,HR-IXPWINDi_r2_v1.2.,2013-01-24 14:56:00,
2013-01-24 10:01:00,31.6,16.0,30.28,WNW,286,6.0,20.0,52,0.00,,,0.00,364,HR-IXPWINDi_r2_v1.2.,2013-01-24 15:01:00,
2013-01-24 10:07:00,31.9,16.3,30.29,NNE,29,1.0,15.0,52,0.00,,,0.00,374,HR-IXPWINDi_r2_v1.2.,2013-01-24 15:07:00,
2013-01-24 10:12:00,32.5,16.4,30.29,NNW,346,8.0,13.0,51,0.00,,,0.00,387,HR-IXPWINDi_r2_v1.2.,2013-01-24 15:12:00,
2013-01-24 10:17:00,32.1,16.0,30.29,NNW,340,7.0,13.0,51,0.00,,,0.00,401,HR-IXPWINDi_r2_v1.2.,2013-01-24 15:17:00,
2013-01-24 10:23:00,31.6,14.7,30.29,SSW,199,9.0,19.0,49,0.00,,,0.00,413,HR-IXPWINDi_r2_v1.2.,2013-01-24 15:23:00,
2013-01-24 10:28:00,32.1,14.6,30.30,WNW,288,6.0,19.0,48,0.00,,,0.00,424,HR-IXPWINDi_r2_v1.2.,2013-01-24 15:28:00,
2013-01-24 10:33:00,32.2,14.3,30.30,NNW,341,6.0,19.0,47,0.00,,,0.00,434,HR-IXPWINDi_r2_v1.2.,2013-01-24 15:33:00,
2013-01-24 10:38:00,31.9,14.0,30.30,SSW,196,6.0,18.0,47,0.00,,,0.00,446,HR-IXPWINDi_r2_v1.2.,2013-01-24 15:38:00,
2013-01-24 10:43:00,32.8,14.8,30.30,NNE,17,5.0,18.0,47,0.00,,,0.00,450,HR-IXPWINDi_r2_v1.2.,2013-01-24 15:43:00,
2013-01-24 10:48:00,32.3,14.3,30.31,NW,324,6.0,10.0,47,0.00,,,0.00,462,HR-IXPWINDi_r2_v1.2.,2013-01-24 15:48:00,
2013-01-24 10:54:00,32.6,14.6,30.31,NW,317,4.0,10.0,47,0.00,,,0.00,475,HR-IXPWINDi_r2_v1.2.,2013-01-24 15:54:00,
2013-01-24 10:59:00,32.8,15.3,30.32,NW,317,0.0,11.0,48,0.00,,,0.00,471,HR-IXPWINDi_r2_v1.2.,2013-01-24 15:59:00,
2013-01-24 11:04:00,33.0,15.5,30.32,SSW,197,2.0,14.0,48,0.00,,,0.00,469,HR-IXPWINDi_r2_v1.2.,2013-01-24 16:04:00,
2013-01-24 11:09:00,32.9,15.4,30.32,South,187,0.0,14.0,48,0.00,,,0.00,497,HR-IXPWINDi_r2_v1.2.,2013-01-24 16:09:00,
2013-01-24 11:14:00,33.4,14.9,30.32,WNW,294,7.0,15.0,46,0.00,,,0.00,510,HR-IXPWINDi_r2_v1.2.,2013-01-24 16:14:00,
2013-01-24 11:19:00,32.8,14.8,30.32,North,360,3.0,15.0,47,0.00,,,0.00,510,HR-IXPWINDi_r2_v1.2.,2013-01-24 16:19:00,
2013-01-24 11:24:00,32.7,14.7,30.33,SSE,165,8.0,10.0,47,0.00,,,0.00,510,HR-IXPWINDi_r2_v1.2.,2013-01-24 16:24:00,
2013-01-24 11:30:00,33.5,15.9,30.33,WNW,300,2.0,12.0,48,0.00,,,0.00,527,HR-IXPWINDi_r2_v1.2.,2013-01-24 16:30:00,
2013-01-24 11:35:00,33.7,15.1,30.34,North,360,9.0,12.0,46,0.00,,,0.00,529,HR-IXPWINDi_r2_v1.2.,2013-01-24 16:35:00,
2013-01-24 11:40:00,33.0,15.5,30.33,North,5,9.0,15.0,48,0.00,,,0.00,527,HR-IXPWINDi_r2_v1.2.,2013-01-24 16:40:00,
2013-01-24 11:45:00,33.2,15.2,30.34,NW,306,1.0,15.0,47,0.00,,,0.00,550,HR-IXPWINDi_r2_v1.2.,2013-01-24 16:45:00,
2013-01-24 11:50:00,33.5,15.4,30.34,SW,225,2.0,12.0,47,0.00,,,0.00,431,HR-IXPWINDi_r2_v1.2.,2013-01-24 16:50:00,
2013-01-24 11:55:00,33.9,15.3,30.35,North,355,9.0,18.0,46,0.00,,,0.00,485,HR-IXPWINDi_r2_v1.2.,2013-01-24 16:55:00,
2013-01-24 12:01:00,33.5,14.5,30.35,NNW,346,8.0,18.0,45,0.00,,,0.00,450,HR-IXPWINDi_r2_v1.2.,2013-01-24 17:01:00,
2013-01-24 12:06:00,33.5,15.0,30.35,NW,312,3.0,13.0,46,0.00,,,0.00,406,HR-IXPWINDi_r2_v1.2.,2013-01-24 17:06:00,
2013-01-24 12:11:00,33.7,14.1,30.34,NNE,20,5.0,13.0,44,0.00,,,0.00,563,HR-IXPWINDi_r2_v1.2.,2013-01-24 17:11:00,
2013-01-24 12:16:00,34.6,16.0,30.34,North,5,6.0,12.0,46,0.00,,,0.00,563,HR-IXPWINDi_r2_v1.2.,2013-01-24 17:16:00,
2013-01-24 12:21:00,34.4,13.7,30.34,NW,309,6.0,12.0,42,0.00,,,0.00,563,HR-IXPWINDi_r2_v1.2.,2013-01-24 17:21:00,
2013-01-24 12:27:00,33.8,13.2,30.35,NNW,340,13.0,17.0,42,0.00,,,0.00,561,HR-IXPWINDi_r2_v1.2.,2013-01-24 17:27:00,
2013-01-24 12:32:00,33.3,13.2,30.34,North,355,11.0,20.0,43,0.00,,,0.00,550,HR-IXPWINDi_r2_v1.2.,2013-01-24 17:32:00,
2013-01-24 12:37:00,33.5,12.9,30.34,WNW,296,5.0,20.0,42,0.00,,,0.00,545,HR-IXPWINDi_r2_v1.2.,2013-01-24 17:37:00,
2013-01-24 12:42:00,33.9,12.7,30.34,NW,323,6.0,15.0,41,0.00,,,0.00,571,HR-IXPWINDi_r2_v1.2.,2013-01-24 17:42:00,
2013-01-24 12:47:00,33.8,12.1,30.34,North,355,7.0,12.0,40,0.00,,,0.00,536,HR-IXPWINDi_r2_v1.2.,2013-01-24 17:47:00,
2013-01-24 12:53:00,34.2,13.0,30.34,SW,231,3.0,12.0,41,0.00,,,0.00,533,HR-IXPWINDi_r2_v1.2.,2013-01-24 17:53:00,
2013-01-24 12:58:00,34.9,12.5,30.34,NNW,332,5.0,12.0,39,0.00,,,0.00,555,HR-IXPWINDi_r2_v1.2.,2013-01-24 17:58:00,
2013-01-24 13:03:00,34.5,11.5,30.34,North,355,14.0,14.0,38,0.00,,,0.00,548,HR-IXPWINDi_r2_v1.2.,2013-01-24 18:03:00,
2013-01-24 13:08:00,33.3,11.0,30.34,NNW,348,7.0,21.0,39,0.00,,,0.00,570,HR-IXPWINDi_r2_v1.2.,2013-01-24 18:08:00,
2013-01-24 13:13:00,34.8,12.4,30.34,WNW,302,5.0,21.0,39,0.00,,,0.00,534,HR-IXPWINDi_r2_v1.2.,2013-01-24 18:13:00,
2013-01-24 13:18:00,34.8,11.2,30.34,North,360,4.0,9.0,37,0.00,,,0.00,552,HR-IXPWINDi_r2_v1.2.,2013-01-24 18:18:00,
2013-01-24 13:24:00,34.6,11.6,30.34,NNW,345,1.0,13.0,38,0.00,,,0.00,522,HR-IXPWINDi_r2_v1.2.,2013-01-24 18:24:00,
2013-01-24 13:29:00,35.3,11.7,30.34,NNW,342,6.0,13.0,37,0.00,,,0.00,499,HR-IXPWINDi_r2_v1.2.,2013-01-24 18:29:00,
2013-01-24 13:34:00,34.3,10.2,30.34,WNW,288,6.0,12.0,36,0.00,,,0.00,459,HR-IXPWINDi_r2_v1.2.,2013-01-24 18:34:00,
2013-01-24 13:39:00,34.9,10.7,30.34,WNW,292,3.0,12.0,36,0.00,,,0.00,410,HR-IXPWINDi_r2_v1.2.,2013-01-24 18:39:00,
2013-01-24 13:44:00,35.2,12.2,30.34,SW,227,3.0,10.0,38,0.00,,,0.00,459,HR-IXPWINDi_r2_v1.2.,2013-01-24 18:44:00,
2013-01-24 13:49:00,35.5,12.4,30.34,SSW,200,7.0,13.0,38,0.00,,,0.00,531,HR-IXPWINDi_r2_v1.2.,2013-01-24 18:49:00,
2013-01-24 13:55:00,36.1,12.4,30.34,South,188,3.0,13.0,37,0.00,,,0.00,524,HR-IXPWINDi_r2_v1.2.,2013-01-24 18:55:00,
2013-01-24 14:00:00,35.3,12.3,30.34,SSW,206,1.0,10.0,38,0.00,,,0.00,522,HR-IXPWINDi_r2_v1.2.,2013-01-24 19:00:00,
2013-01-24 14:05:00,34.7,11.1,30.34,NW,325,1.0,12.0,37,0.00,,,0.00,438,HR-IXPWINDi_r2_v1.2.,2013-01-24 19:05:00,
2013-01-24 14:10:00,34.9,10.1,30.34,South,178,8.0,16.0,35,0.00,,,0.00,497,HR-IXPWINDi_r2_v1.2.,2013-01-24 19:10:00,
2013-01-24 14:15:00,34.8,10.6,30.34,NNW,342,12.0,16.0,36,0.00,,,0.00,468,HR-IXPWINDi_r2_v1.2.,2013-01-24 19:15:00,
2013-01-24 14:21:00,35.0,11.4,30.34,SSW,203,3.0,12.0,37,0.00,,,0.00,436,HR-IXPWINDi_r2_v1.2.,2013-01-24 19:21:00,
2013-01-24 14:26:00,34.7,10.5,30.34,South,191,0.0,10.0,36,0.00,,,0.00,417,HR-IXPWINDi_r2_v1.2.,2013-01-24 19:26:00,
2013-01-24 14:31:00,34.3,10.8,30.35,NNW,327,4.0,14.0,37,0.00,,,0.00,309,HR-IXPWINDi_r2_v1.2.,2013-01-24 19:31:00,
2013-01-24 14:36:00,34.7,11.1,30.35,NNW,331,2.0,14.0,37,0.00,,,0.00,376,HR-IXPWINDi_r2_v1.2.,2013-01-24 19:36:00,
2013-01-24 14:41:00,34.4,9.6,30.35,WNW,285,0.0,13.0,35,0.00,,,0.00,371,HR-IXPWINDi_r2_v1.2.,2013-01-24 19:41:00,
2013-01-24 14:47:00,34.4,10.2,30.35,NW,310,1.0,13.0,36,0.00,,,0.00,388,HR-IXPWINDi_r2_v1.2.,2013-01-24 19:47:00,
2013-01-24 14:52:00,34.4,10.2,30.36,North,355,1.0,8.0,36,0.00,,,0.00,436,HR-IXPWINDi_r2_v1.2.,2013-01-24 19:52:00,
2013-01-24 14:57:00,34.2,10.1,30.36,North,360,8.0,14.0,36,0.00,,,0.00,329,HR-IXPWINDi_r2_v1.2.,2013-01-24 19:57:00,
2013-01-24 15:02:00,33.4,9.4,30.36,NNW,331,3.0,14.0,36,0.00,,,0.00,381,HR-IXPWINDi_r2_v1.2.,2013-01-24 20:02:00,
2013-01-24 15:08:00,35.5,10.6,30.36,NW,315,3.0,14.0,35,0.00,,,0.00,367,HR-IXPWINDi_r2_v1.2.,2013-01-24 20:08:00,
2013-01-24 15:13:00,34.6,9.1,30.36,West,276,3.0,10.0,34,0.00,,,0.00,366,HR-IXPWINDi_r2_v1.2.,2013-01-24 20:13:00,
2013-01-24 15:18:00,35.0,8.2,30.36,NNW,347,3.0,7.0,32,0.00,,,0.00,325,HR-IXPWINDi_r2_v1.2.,2013-01-24 20:18:00,
2013-01-24 15:23:00,35.1,9.6,30.36,North,355,14.0,14.0,34,0.00,,,0.00,276,HR-IXPWINDi_r2_v1.2.,2013-01-24 20:23:00,
2013-01-24 15:28:00,34.1,8.7,30.37,SE,130,0.0,15.0,34,0.00,,,0.00,246,HR-IXPWINDi_r2_v1.2.,2013-01-24 20:28:00,
2013-01-24 15:34:00,35.0,10.1,30.37,NW,313,2.0,15.0,35,0.00,,,0.00,327,HR-IXPWINDi_r2_v1.2.,2013-01-24 20:34:00,
2013-01-24 15:39:00,34.5,7.0,30.38,WNW,294,2.0,7.0,31,0.00,,,0.00,274,HR-IXPWINDi_r2_v1.2.,2013-01-24 20:39:00,
2013-01-24 15:44:00,33.5,6.1,30.37,North,355,9.0,10.0,31,0.00,,,0.00,265,HR-IXPWINDi_r2_v1.2.,2013-01-24 20:44:00,
2013-01-24 15:49:00,33.9,7.9,30.38,NNW,342,3.0,10.0,33,0.00,,,0.00,232,HR-IXPWINDi_r2_v1.2.,2013-01-24 20:49:00,
2013-01-24 15:54:00,33.0,6.4,30.38,South,187,3.0,13.0,32,0.00,,,0.00,199,HR-IXPWINDi_r2_v1.2.,2013-01-24 20:54:00,
2013-01-24 15:59:00,34.2,8.1,30.38,SSW,203,4.0,13.0,33,0.00,,,0.00,236,HR-IXPWINDi_r2_v1.2.,2013-01-24 20:59:00,
2013-01-24 16:05:00,33.5,6.8,30.38,NNW,328,1.0,11.0,32,0.00,,,0.00,207,HR-IXPWINDi_r2_v1.2.,2013-01-24 21:05:00,
2013-01-24 16:10:00,33.3,6.7,30.38,SW,219,4.0,11.0,32,0.00,,,0.00,165,HR-IXPWINDi_r2_v1.2.,2013-01-24 21:10:00,
2013-01-24 16:15:00,33.3,6.7,30.38,WSW,244,0.0,7.0,32,0.00,,,0.00,192,HR-IXPWINDi_r2_v1.2.,2013-01-24 21:15:00,
2013-01-24 16:20:00,34.0,8.0,30.39,WSW,252,0.0,7.0,33,0.00,,,0.00,114,HR-IXPWINDi_r2_v1.2.,2013-01-24 21:20:00,
2013-01-24 16:25:00,33.5,8.2,30.38,South,175,2.0,5.0,34,0.00,,,0.00,155,HR-IXPWINDi_r2_v1.2.,2013-01-24 21:25:00,
2013-01-24 16:31:00,33.6,6.9,30.39,SW,215,5.0,7.0,32,0.00,,,0.00,130,HR-IXPWINDi_r2_v1.2.,2013-01-24 21:31:00,
2013-01-24 16:36:00,32.9,7.0,30.39,WNW,287,1.0,7.0,33,0.00,,,0.00,114,HR-IXPWINDi_r2_v1.2.,2013-01-24 21:36:00,
2013-01-24 16:41:00,33.0,7.7,30.40,SW,215,1.0,6.0,34,0.00,,,0.00,123,HR-IXPWINDi_r2_v1.2.,2013-01-24 21:41:00,
2013-01-24 16:46:00,32.5,7.3,30.39,WSW,240,4.0,9.0,34,0.00,,,0.00,93,HR-IXPWINDi_r2_v1.2.,2013-01-24 21:46:00,
2013-01-24 16:51:00,32.4,7.2,30.39,NNW,342,3.0,9.0,34,0.00,,,0.00,74,HR-IXPWINDi_r2_v1.2.,2013-01-24 21:51:00,
2013-01-24 16:56:00,32.3,7.1,30.39,North,360,5.0,7.0,34,0.00,,,0.00,67,HR-IXPWINDi_r2_v1.2.,2013-01-24 21:56:00,
2013-01-24 17:01:00,32.0,6.2,30.40,NNW,338,2.0,8.0,33,0.00,,,0.00,72,HR-IXPWINDi_r2_v1.2.,2013-01-24 22:01:00,
2013-01-24 17:06:00,32.0,6.2,30.40,North,5,4.0,8.0,33,0.00,,,0.00,53,HR-IXPWINDi_r2_v1.2.,2013-01-24 22:06:00,
2013-01-24 17:11:00,31.8,6.7,30.40,NNW,331,2.0,8.0,34,0.00,,,0.00,44,HR-IXPWINDi_r2_v1.2.,2013-01-24 22:11:00,
2013-01-24 17:17:00,31.6,7.1,30.40,NNW,333,0.0,7.0,35,0.00,,,0.00,35,HR-IXPWINDi_r2_v1.2.,2013-01-24 22:17:00,
2013-01-24 17:22:00,31.1,6.1,30.40,South,187,3.0,7.0,34,0.00,,,0.00,26,HR-IXPWINDi_r2_v1.2.,2013-01-24 22:22:00,
2013-01-24 17:27:00,30.5,6.8,30.40,SW,221,3.0,6.0,36,0.00,,,0.00,21,HR-IXPWINDi_r2_v1.2.,2013-01-24 22:27:00,
2013-01-24 17:32:00,30.3,7.2,30.41,SSW,201,0.0,5.0,37,0.00,,,0.00,18,HR-IXPWINDi_r2_v1.2.,2013-01-24 22:32:00,
2013-01-24 17:37:00,30.1,7.0,30.41,SSW,211,0.0,5.0,37,0.00,,,0.00,11,HR-IXPWINDi_r2_v1.2.,2013-01-24 22:37:00,
2013-01-24 17:42:00,30.1,7.6,30.41,SSW,211,2.0,5.0,38,0.00,,,0.00,7,HR-IXPWINDi_r2_v1.2.,2013-01-24 22:42:00,
2013-01-24 17:47:00,29.7,7.2,30.41,SSW,211,0.0,3.0,38,0.00,,,0.00,0,HR-IXPWINDi_r2_v1.2.,2013-01-24 22:47:00,
2013-01-24 17:52:00,29.4,7.0,30.42,SSW,211,0.0,3.0,38,0.00,,,0.00,0,HR-IXPWINDi_r2_v1.2.,2013-01-24 22:52:00,
2013-01-24 17:58:00,29.1,7.3,30.42,SSW,211,0.0,3.0,39,0.00,,,0.00,0,HR-IXPWINDi_r2_v1.2.,2013-01-24 22:58:00,
2013-01-24 18:03:00,29.2,8.5,30.42,SSW,211,0.0,1.0,41,0.00,,,0.00,0,HR-IXPWINDi_r2_v1.2.,2013-01-24 23:03:00,
2013-01-24 18:08:00,29.0,7.7,30.42,SSW,211,0.0,2.0,40,0.00,,,0.00,0,HR-IXPWINDi_r2_v1.2.,2013-01-24 23:08:00,
2013-01-24 18:13:00,29.4,11.7,30.42,SSW,211,0.0,2.0,47,0.00,,,0.00,0,HR-IXPWINDi_r2_v1.2.,2013-01-24 23:13:00,
2013-01-24 18:18:00,28.9,8.2,30.42,SSW,211,0.0,0.0,41,0.00,,,0.00,0,HR-IXPWINDi_r2_v1.2.,2013-01-24 23:18:00,
2013-01-24 18:23:00,28.3,8.7,30.42,SSW,211,0.0,3.0,43,0.00,,,0.00,0,HR-IXPWINDi_r2_v1.2.,2013-01-24 23:23:00,
2013-01-24 18:29:00,27.9,8.3,30.42,SSW,211,0.0,3.0,43,0.00,,,0.00,0,HR-IXPWINDi_r2_v1.2.,2013-01-24 23:29:00,
2013-01-24 18:34:00,27.8,10.2,30.42,SSW,212,2.0,2.0,47,0.00,,,0.00,0,HR-IXPWINDi_r2_v1.2.,2013-01-24 23:34:00,
2013-01-24 18:39:00,27.5,11.8,30.42,SW,217,1.0,3.0,51,0.00,,,0.00,0,HR-IXPWINDi_r2_v1.2.,2013-01-24 23:39:00,
2013-01-24 18:44:00,27.4,12.6,30.43,SW,217,0.0,3.0,53,0.00,,,0.00,0,HR-IXPWINDi_r2_v1.2.,2013-01-24 23:44:00,
2013-01-24 18:49:00,27.1,11.0,30.43,SW,217,0.0,2.0,50,0.00,,,0.00,0,HR-IXPWINDi_r2_v1.2.,2013-01-24 23:49:00,
2013-01-24 18:55:00,27.1,12.3,30.44,SW,217,0.0,0.0,53,0.00,,,0.00,0,HR-IXPWINDi_r2_v1.2.,2013-01-24 23:55:00,
2013-01-24 19:00:00,27.4,13.8,30.43,SW,225,2.0,3.0,56,0.00,,,0.00,0,HR-IXPWINDi_r2_v1.2.,2013-01-25 00:00:00,
2013-01-24 19:05:00,26.7,13.5,30.43,West,278,2.0,3.0,57,0.00,,,0.00,0,HR-IXPWINDi_r2_v1.2.,2013-01-25 00:05:00,
2013-01-24 19:10:00,27.0,14.6,30.43,West,278,0.0,3.0,59,0.00,,,0.00,0,HR-IXPWINDi_r2_v1.2.,2013-01-25 00:10:00,
2013-01-24 19:16:00,26.7,14.7,30.43,West,278,0.0,2.0,60,0.00,,,0.00,0,HR-IXPWINDi_r2_v1.2.,2013-01-25 00:16:00,
2013-01-24 19:21:00,26.2,14.6,30.43,West,278,0.0,0.0,61,0.00,,,0.00,0,HR-IXPWINDi_r2_v1.2.,2013-01-25 00:21:00,
2013-01-24 19:26:00,26.1,13.4,30.43,West,278,0.0,0.0,58,0.00,,,0.00,0,HR-IXPWINDi_r2_v1.2.,2013-01-25 00:26:00,
2013-01-24 19:31:00,25.7,14.1,30.43,West,278,1.0,3.0,61,0.00,,,0.00,0,HR-IXPWINDi_r2_v1.2.,2013-01-25 00:31:00,
2013-01-24 19:36:00,25.6,14.8,30.43,West,278,0.0,3.0,63,0.00,,,0.00,0,HR-IXPWINDi_r2_v1.2.,2013-01-25 00:36:00,
2013-01-24 19:42:00,25.5,14.7,30.43,West,278,1.0,2.0,63,0.00,,,0.00,0,HR-IXPWINDi_r2_v1.2.,2013-01-25 00:42:00,
2013-01-24 19:47:00,25.1,14.3,30.43,West,278,0.0,2.0,63,0.00,,,0.00,0,HR-IXPWINDi_r2_v1.2.,2013-01-25 00:47:00,
2013-01-24 19:52:00,24.9,14.5,30.43,West,278,0.0,2.0,64,0.00,,,0.00,0,HR-IXPWINDi_r2_v1.2.,2013-01-25 00:52:00,
2013-01-24 19:57:00,25.6,14.4,30.42,West,278,0.0,2.0,62,0.00,,,0.00,0,HR-IXPWINDi_r2_v1.2.,2013-01-25 00:57:00,
2013-01-24 20:02:00,25.3,14.9,30.43,West,278,1.0,2.0,64,0.00,,,0.00,0,HR-IXPWINDi_r2_v1.2.,2013-01-25 01:02:00,
2013-01-24 20:08:00,24.7,13.9,30.43,West,278,0.0,2.0,63,0.00,,,0.00,0,HR-IXPWINDi_r2_v1.2.,2013-01-25 01:08:00,
2013-01-24 20:13:00,24.7,14.3,30.42,West,278,2.0,2.0,64,0.00,,,0.00,0,HR-IXPWINDi_r2_v1.2.,2013-01-25 01:13:00,
2013-01-24 20:18:00,24.6,14.5,30.42,West,278,0.0,2.0,65,0.00,,,0.00,0,HR-IXPWINDi_r2_v1.2.,2013-01-25 01:18:00,
2013-01-24 20:23:00,24.3,13.9,30.42,West,279,2.0,3.0,64,0.00,,,0.00,0,HR-IXPWINDi_r2_v1.2.,2013-01-25 01:23:00,
2013-01-24 20:28:00,24.2,14.5,30.43,WNW,292,0.0,3.0,66,0.00,,,0.00,0,HR-IXPWINDi_r2_v1.2.,2013-01-25 01:28:00,
2013-01-24 20:33:00,23.7,14.0,30.42,WNW,292,0.0,3.0,66,0.00,,,0.00,0,HR-IXPWINDi_r2_v1.2.,2013-01-25 01:33:00,
2013-01-24 20:38:00,23.7,14.0,30.43,WNW,292,0.0,1.0,66,0.00,,,0.00,0,HR-IXPWINDi_r2_v1.2.,2013-01-25 01:38:00,
2013-01-24 20:44:00,23.7,14.0,30.43,WNW,292,0.0,0.0,66,0.00,,,0.00,0,HR-IXPWINDi_r2_v1.2.,2013-01-25 01:44:00,
2013-01-24 20:49:00,23.3,14.7,30.42,WNW,292,0.0,0.0,69,0.00,,,0.00,0,HR-IXPWINDi_r2_v1.2.,2013-01-25 01:49:00,
2013-01-24 20:54:00,23.8,15.1,30.42,WNW,292,0.0,1.0,69,0.00,,,0.00,0,HR-IXPWINDi_r2_v1.2.,2013-01-25 01:54:00,
2013-01-24 20:59:00,23.9,15.2,30.42,WNW,292,0.0,1.0,69,0.00,,,0.00,0,HR-IXPWINDi_r2_v1.2.,2013-01-25 01:59:00,
2013-01-24 21:05:00,24.0,15.3,30.41,WNW,292,2.0,2.0,69,0.00,,,0.00,0,HR-IXPWINDi_r2_v1.2.,2013-01-25 02:05:00,
2013-01-24 21:10:00,23.7,15.4,30.41,WNW,292,0.0,2.0,70,0.00,,,0.00,0,HR-IXPWINDi_r2_v1.2.,2013-01-25 02:10:00,
2013-01-24 21:15:00,23.7,15.0,30.41,WNW,292,0.0,2.0,69,0.00,,,0.00,0,HR-IXPWINDi_r2_v1.2.,2013-01-25 02:15:00,
2013-01-24 21:20:00,23.1,15.1,30.41,WNW,292,2.0,2.0,71,0.00,,,0.00,0,HR-IXPWINDi_r2_v1.2.,2013-01-25 02:20:00,
2013-01-24 21:25:00,22.7,15.1,30.42,WNW,292,0.0,3.0,72,0.00,,,0.00,0,HR-IXPWINDi_r2_v1.2.,2013-01-25 02:25:00,
2013-01-24 21:30:00,22.4,14.1,30.42,WNW,292,0.0,3.0,70,0.00,,,0.00,0,HR-IXPWINDi_r2_v1.2.,2013-01-25 02:30:00,
2013-01-24 21:36:00,22.0,14.1,30.42,WNW,292,0.0,2.0,71,0.00,,,0.00,0,HR-IXPWINDi_r2_v1.2.,2013-01-25 02:36:00,
2013-01-24 21:41:00,22.0,14.4,30.42,WNW,292,0.0,2.0,72,0.00,,,0.00,0,HR-IXPWINDi_r2_v1.2.,2013-01-25 02:41:00,
2013-01-24 21:46:00,22.0,14.7,30.42,WNW,292,0.0,0.0,73,0.00,,,0.00,0,HR-IXPWINDi_r2_v1.2.,2013-01-25 02:46:00,
2013-01-24 21:51:00,21.9,14.6,30.42,SSE,150,0.0,5.0,73,0.00,,,0.00,0,HR-IXPWINDi_r2_v1.2.,2013-01-25 02:51:00,
2013-01-24 21:56:00,21.6,14.3,30.42,NNE,15,0.0,5.0,73,0.00,,,0.00,0,HR-IXPWINDi_r2_v1.2.,2013-01-25 02:56:00,
2013-01-24 22:02:00,21.6,14.6,30.42,North,5,2.0,3.0,74,0.00,,,0.00,0,HR-IXPWINDi_r2_v1.2.,2013-01-25 03:02:00,
2013-01-24 22:07:00,21.7,14.4,30.42,North,355,0.0,3.0,73,0.00,,,0.00,0,HR-IXPWINDi_r2_v1.2.,2013-01-25 03:07:00,
2013-01-24 22:12:00,21.6,14.3,30.43,North,355,0.0,3.0,73,0.00,,,0.00,0,HR-IXPWINDi_r2_v1.2.,2013-01-25 03:12:00,
2013-01-24 22:17:00,21.7,14.1,30.43,ESE,102,0.0,3.0,72,0.00,,,0.00,0,HR-IXPWINDi_r2_v1.2.,2013-01-25 03:17:00,
2013-01-24 22:22:00,21.7,14.1,30.43,ESE,102,0.0,3.0,72,0.00,,,0.00,0,HR-IXPWINDi_r2_v1.2.,2013-01-25 03:22:00,
2013-01-24 22:28:00,22.1,13.5,30.43,East,88,0.0,4.0,69,0.00,,,0.00,0,HR-IXPWINDi_r2_v1.2.,2013-01-25 03:28:00,
2013-01-24 22:33:00,22.0,13.8,30.42,NNW,332,3.0,5.0,70,0.00,,,0.00,0,HR-IXPWINDi_r2_v1.2.,2013-01-25 03:33:00,
2013-01-24 22:38:00,22.0,14.4,30.42,North,360,1.0,5.0,72,0.00,,,0.00,0,HR-IXPWINDi_r2_v1.2.,2013-01-25 03:38:00,
2013-01-24 22:43:00,21.8,14.2,30.43,NNE,23,1.0,4.0,72,0.00,,,0.00,0,HR-IXPWINDi_r2_v1.2.,2013-01-25 03:43:00,
2013-01-24 22:48:00,21.5,13.9,30.42,SE,130,0.0,6.0,72,0.00,,,0.00,0,HR-IXPWINDi_r2_v1.2.,2013-01-25 03:48:00,
2013-01-24 22:53:00,21.3,14.3,30.43,SE,130,0.0,6.0,74,0.00,,,0.00,0,HR-IXPWINDi_r2_v1.2.,2013-01-25 03:53:00,
2013-01-24 22:58:00,21.3,14.3,30.43,ENE,67,1.0,5.0,74,0.00,,,0.00,0,HR-IXPWINDi_r2_v1.2.,2013-01-25 03:58:00,
2013-01-24 23:04:00,21.5,14.2,30.43,ENE,67,0.0,4.0,73,0.00,,,0.00,0,HR-IXPWINDi_r2_v1.2.,2013-01-25 04:04:00,
2013-01-24 23:09:00,22.0,14.4,30.43,ENE,67,0.0,2.0,72,0.00,,,0.00,0,HR-IXPWINDi_r2_v1.2.,2013-01-25 04:09:00,
2013-01-24 23:14:00,22.1,14.5,30.44,ENE,67,0.0,1.0,72,0.00,,,0.00,0,HR-IXPWINDi_r2_v1.2.,2013-01-25 04:14:00,
2013-01-24 23:19:00,22.1,14.5,30.43,ENE,67,0.0,1.0,72,0.00,,,0.00,0,HR-IXPWINDi_r2_v1.2.,2013-01-25 04:19:00,
2013-01-24 23:24:00,21.8,14.2,30.43,ENE,67,1.0,3.0,72,0.00,,,0.00,0,HR-IXPWINDi_r2_v1.2.,2013-01-25 04:24:00,
2013-01-24 23:30:00,21.7,14.1,30.44,ENE,63,0.0,3.0,72,0.00,,,0.00,0,HR-IXPWINDi_r2_v1.2.,2013-01-25 04:30:00,
2013-01-24 23:35:00,22.6,12.3,30.44,SE,142,0.0,6.0,64,0.00,,,0.00,0,HR-IXPWINDi_r2_v1.2.,2013-01-25 04:35:00,
2013-01-24 23:40:00,23.2,12.2,30.44,ESE,121,5.0,6.0,62,0.00,,,0.00,0,HR-IXPWINDi_r2_v1.2.,2013-01-25 04:40:00,
2013-01-24 23:45:00,23.8,10.8,30.44,South,184,2.0,8.0,57,0.00,,,0.00,0,HR-IXPWINDi_r2_v1.2.,2013-01-25 04:45:00,
2013-01-24 23:50:00,24.5,9.4,30.44,SE,129,2.0,8.0,52,0.00,,,0.00,0,HR-IXPWINDi_r2_v1.2.,2013-01-25 04:50:00,
2013-01-24 23:55:00,24.9,8.5,30.44,SSW,201,4.0,8.0,49,0.00,,,0.00,0,HR-IXPWINDi_r2_v1.2.,2013-01-25 04:55:00,